Home   Weather   Puerto Vallarta   Past weeks

Flag for Mexico Past Weather in Puerto Vallarta, Jalisco, Mexico — Yesterday and Last 2 Weeks

Now
73 °F

Passing clouds.


Feels Like: 75 °F
Forecast: 62 / 82 °F
Wind: 2 mph from Northeast

Location: Puerto Vallarta / Lic

Current Time: Jan 23, 2017 at 11:18:14 pm

Latest Report: Jan 23, 2017 at 9:41 pm


Visibility: 12 mi

Pressure: 29.92 "Hg

Humidity: 74%

Dew Point: 64 °F

Location of Puerto VallartaLocation

Past Weather in Puerto Vallarta — Graph

°F

Puerto Vallarta Temperature Yesterday

Maximum temperature yesterday: 75 °F (at 2:46 pm)
Minimum temperature yesterday: 55 °F (at 7:47 am)
Average temperature yesterday: 67 °F

High & Low Weather Summary for the Past Weeks

 TemperatureHumidityPressure
High82 °F (Jan 11, 11:46 am)100% (Jan 9, 9:45 pm)30.09 "Hg (Jan 9, 9:45 pm)
Low55 °F (Jan 22, 7:47 am)39% (Jan 14, 11:47 am)29.81 "Hg (Jan 23, 3:41 pm)
Average70 °F81%29.97 "Hg
* Reported Jan 8 9:43 pm — Jan 23 9:41 pm, Puerto Vallarta, Weather by CustomWeather, © 2017

Note: Actual official high and low records may vary slightly from our data, if they occured in-between our weather recording intervals... More about our weather records

Advertising

Puerto Vallarta Weather History for the Previous 24 Hours

Scroll right to see more
 ConditionsComfort  
Time TempWeatherWind HumidityBarometerVisibility
9:41 pm
Mon, Jan 23
73 °FPassing clouds.2 mph74%29.92 "Hg12 mi
8:44 pm73 °FOvercast.No wind69%29.90 "Hg12 mi
7:47 pm75 °FOvercast.2 mph69%29.88 "Hg12 mi
6:48 pm75 °FOvercast.3 mph61%29.86 "Hg12 mi
5:49 pm77 °FBroken clouds.7 mph57%29.85 "Hg12 mi
4:47 pm77 °FSunny.8 mph61%29.82 "Hg15 mi
3:41 pm75 °FSunny.10 mph74%29.81 "Hg15 mi
2:51 pm75 °FSunny.9 mph69%29.82 "Hg15 mi
1:43 pm77 °FSunny.12 mph61%29.85 "Hg15 mi
12:45 pm73 °FSunny.9 mph65%29.88 "Hg15 mi
11:43 am73 °FSunny.7 mph65%29.89 "Hg15 mi
10:50 am72 °FSunny.6 mph65%29.91 "Hg15 mi
9:40 am63 °FSunny.3 mph83%29.88 "Hg15 mi
8:49 am59 °FSunny.N/A88%29.88 "Hg15 mi
7:44 am55 °FSunny.No wind100%29.88 "Hg15 mi
6:42 am55 °FClear.5 mph100%29.88 "Hg15 mi
5:54 am55 °FClear.3 mph100%29.87 "Hg15 mi
4:41 am59 °FClear.3 mph94%29.88 "Hg15 mi
3:41 am59 °FClear.3 mph94%29.90 "Hg15 mi
2:45 am61 °FClear.5 mph94%29.91 "Hg15 mi
1:40 am61 °FClear.5 mph94%29.93 "Hg15 mi
12:46 am63 °FClear.6 mph88%29.94 "Hg15 mi
11:45 pm
Sun, Jan 22
64 °FClear.2 mph88%29.94 "Hg15 mi
Weather by CustomWeather, © 2017

See weather overviewHow to use our weather pages